INMARSAT 4-F2

导读 | 豆包AI

INMARSAT 4-F2是国际海事卫星组织(INMARSAT)第四代通信卫星,于2005年11月8日发射升空。作为全球宽带海事卫星通信系统的重要组成部分,它可为船舶、航空及陆地用户提供语音通信、高速IP数据、传真、短信等多元服务,支持航海安全通信、互联网接入、远程应急救援等场景,为全球海事及跨区域通信保障提供了关键支撑,持续提升全球移动卫星通信的覆盖与服务能力。

基本信息
目录编号:
28899
目录名称:
INMARSAT 4-F2
国际标识:
2005-044A
轨道中心:
EARTH
卫星名称:
INMARSAT 4-F2
卫星全名:
--
卫星状态:
在轨 (已飞行7431 天)
发射日期:
2005-11-08 UTC
国别 :
(Inmarsat)
星等 :
--
轨道信息
数据来源 国际轨道数据 AOE轨道数据
星历时间 2026-03-13T19:19:38+0800
17小时前
查看轨道信息
2026-03-14T01:00:00+0800
11小时前
查看轨道信息
半长轴 42164.756km 42164.728km
偏心率 0.0002732 0.0002786
轨道倾角 4.968° 4.971°
近地点辐角 333.490° 335.413°
升交点赤经 43.792° 43.798°
平近点角 107.223° 190.614°
近地点 35775.099km 35774.843km
远地点 35798.139km 35798.339km
周期 1436.098分钟 1436.097分钟
每日圈数 1.002717 1.002718
详细信息
使用方式:
暂无
2D轨道图
3D轨道图
轨道高度分析图
轨道倾角分析图
轨道综合分析图
查看轨道综合分析图